Location: Curry Village
(37.7369°N, 119.5727°W)
Time: 12:06:57
(UTC+00:00)

USA 229 DEB - Pass Details

Date: 05 August 2024
Orbit: 881 x 1330 km, 63.4° (Epoch: 31 August)

Event Time Altitude Azimuth Distance (km) Brightness Sun altitude
Rises 12:02:27 0° 326° (NW) 4,048 6.7 -12.0°
Reaches altitude 10° 12:05:05 10° 325° (NW) 3,141 6.1 -11.5°
Maximum altitude 12:12:46 81° 240° (WSW) 1,295 4.1 -10.2°
Drops below altitude 10° 12:20:58 10° 154° (SSE) 3,345 6.3 -8.8°
Sets 12:23:51 0° 154° (SSE) 4,324 6.9 -8.3°
